Year,Month,Day,Hour,Minute,Value (Times are PST for windgust in km/hr)
2014,02,12,00,00,9.60
2014,02,12,00,01,19.30
2014,02,12,00,02,19.30
2014,02,12,00,03,9.60
2014,02,12,00,04,9.60
2014,02,12,00,05,8.10
2014,02,12,00,06,6.40
2014,02,12,00,07,16.10
2014,02,12,00,08,16.10
2014,02,12,00,09,19.30
2014,02,12,00,10,17.70
2014,02,12,00,11,6.40
2014,02,12,00,12,8.10
2014,02,12,00,13,8.10
2014,02,12,00,14,12.90
2014,02,12,00,15,11.30
2014,02,12,00,16,9.60
2014,02,12,00,17,11.30
2014,02,12,00,18,11.30
2014,02,12,00,19,16.10
2014,02,12,00,20,19.30
2014,02,12,00,21,9.60
2014,02,12,00,22,11.30
2014,02,12,00,23,8.10
2014,02,12,00,24,3.20
2014,02,12,00,25,6.40
2014,02,12,00,26,8.10
2014,02,12,00,27,19.30
2014,02,12,00,28,12.90
2014,02,12,00,29,16.10
2014,02,12,00,30,12.90
2014,02,12,00,31,14.50
2014,02,12,00,32,12.90
2014,02,12,00,33,12.90
2014,02,12,00,34,12.90
2014,02,12,00,35,6.40
2014,02,12,00,36,11.30
2014,02,12,00,37,6.40
2014,02,12,00,38,11.30
2014,02,12,00,39,9.60
2014,02,12,00,40,8.10
2014,02,12,00,41,8.10
2014,02,12,00,42,8.10
2014,02,12,00,43,11.30
2014,02,12,00,44,8.10
2014,02,12,00,45,8.10
2014,02,12,00,46,4.80
2014,02,12,00,47,6.40
2014,02,12,00,48,6.40
2014,02,12,00,49,8.10
2014,02,12,00,50,6.40
2014,02,12,00,51,3.20
2014,02,12,00,52,12.90
2014,02,12,00,53,9.60
2014,02,12,00,54,3.20
2014,02,12,00,55,4.80
2014,02,12,00,56,9.60
2014,02,12,00,57,11.30
2014,02,12,00,58,9.60
2014,02,12,00,59,11.30
2014,02,12,01,00,4.80
2014,02,12,01,01,1.60
2014,02,12,01,02,3.20
2014,02,12,01,03,3.20
2014,02,12,01,04,9.60
2014,02,12,01,05,9.60
2014,02,12,01,06,9.60
2014,02,12,01,07,11.30
2014,02,12,01,08,8.10
2014,02,12,01,09,8.10
2014,02,12,01,10,8.10
2014,02,12,01,11,16.10
2014,02,12,01,12,16.10
2014,02,12,01,13,9.60
2014,02,12,01,14,17.70
2014,02,12,01,15,16.10
2014,02,12,01,16,9.60
2014,02,12,01,17,14.50
2014,02,12,01,18,12.90
2014,02,12,01,19,4.80
2014,02,12,01,20,11.30
2014,02,12,01,21,8.10
2014,02,12,01,22,9.60
2014,02,12,01,23,16.10
2014,02,12,01,24,16.10
2014,02,12,01,25,6.40
2014,02,12,01,26,9.60
2014,02,12,01,27,14.50
2014,02,12,01,28,24.20
2014,02,12,01,29,9.60
2014,02,12,01,30,8.10
2014,02,12,01,31,9.60
2014,02,12,01,32,8.10
2014,02,12,01,33,6.40
2014,02,12,01,34,6.40
2014,02,12,01,35,12.90
2014,02,12,01,36,12.90
2014,02,12,01,37,14.50
2014,02,12,01,38,6.40
2014,02,12,01,39,4.80
2014,02,12,01,40,6.40
2014,02,12,01,41,6.40
2014,02,12,01,42,9.60
2014,02,12,01,43,12.90
2014,02,12,01,44,8.10
2014,02,12,01,45,8.10
2014,02,12,01,46,11.30
2014,02,12,01,47,9.60
2014,02,12,01,48,17.70
2014,02,12,01,49,24.20
2014,02,12,01,50,3.20
2014,02,12,01,51,14.50
2014,02,12,01,52,17.70
2014,02,12,01,53,20.90
2014,02,12,01,54,8.10
2014,02,12,01,55,20.90
2014,02,12,01,56,19.30
2014,02,12,01,57,3.20
2014,02,12,01,58,14.50
2014,02,12,01,59,11.30
2014,02,12,02,00,3.20
2014,02,12,02,01,9.60
2014,02,12,02,02,6.40
2014,02,12,02,03,8.10
2014,02,12,02,04,17.70
2014,02,12,02,05,17.70
2014,02,12,02,06,6.40
2014,02,12,02,07,3.20
2014,02,12,02,08,3.20
2014,02,12,02,09,8.10
2014,02,12,02,10,16.10
2014,02,12,02,11,25.70
2014,02,12,02,12,16.10
2014,02,12,02,13,12.90
2014,02,12,02,14,9.60
2014,02,12,02,15,3.20
2014,02,12,02,16,12.90
2014,02,12,02,17,4.80
2014,02,12,02,18,4.80
2014,02,12,02,19,3.20
2014,02,12,02,20,4.80
2014,02,12,02,21,8.10
2014,02,12,02,22,9.60
2014,02,12,02,23,8.10
2014,02,12,02,24,3.20
2014,02,12,02,25,9.60
2014,02,12,02,26,4.80
2014,02,12,02,27,4.80
2014,02,12,02,28,9.60
2014,02,12,02,29,8.10
2014,02,12,02,30,6.40
2014,02,12,02,31,9.60
2014,02,12,02,32,17.70
2014,02,12,02,33,4.80
2014,02,12,02,34,16.10
2014,02,12,02,35,16.10
2014,02,12,02,36,6.40
2014,02,12,02,37,6.40
2014,02,12,02,38,9.60
2014,02,12,02,39,6.40
2014,02,12,02,40,6.40
2014,02,12,02,41,6.40
2014,02,12,02,42,8.10
2014,02,12,02,43,11.30
2014,02,12,02,44,8.10
2014,02,12,02,45,11.30
2014,02,12,02,46,8.10
2014,02,12,02,47,11.30
2014,02,12,02,48,9.60
2014,02,12,02,49,4.80
2014,02,12,02,50,6.40
2014,02,12,02,51,6.40
2014,02,12,02,52,14.50
2014,02,12,02,53,6.40
2014,02,12,02,54,11.30
2014,02,12,02,55,12.90
2014,02,12,02,56,17.70
2014,02,12,02,57,12.90
2014,02,12,02,58,17.70
2014,02,12,02,59,11.30
2014,02,12,03,00,9.60
2014,02,12,03,01,14.50
2014,02,12,03,02,12.90
2014,02,12,03,03,8.10
2014,02,12,03,04,6.40
2014,02,12,03,05,11.30
2014,02,12,03,06,6.40
2014,02,12,03,07,3.20
2014,02,12,03,08,3.20
2014,02,12,03,09,6.40
2014,02,12,03,10,6.40
2014,02,12,03,11,1.60
2014,02,12,03,13,6.40
2014,02,12,03,14,3.20
2014,02,12,03,16,1.60
2014,02,12,03,17,8.10
2014,02,12,03,18,9.60
2014,02,12,03,19,6.40
2014,02,12,03,25,1.60
2014,02,12,03,27,1.60
2014,02,12,03,28,1.60
2014,02,12,03,29,3.20
2014,02,12,03,30,1.60
2014,02,12,03,31,3.20
2014,02,12,03,32,3.20
2014,02,12,03,33,3.20
2014,02,12,03,34,3.20
2014,02,12,03,35,1.60
2014,02,12,03,36,1.60
2014,02,12,03,40,1.60
2014,02,12,03,41,1.60
2014,02,12,03,42,3.20
2014,02,12,03,43,3.20
2014,02,12,03,46,1.60
2014,02,12,03,47,1.60
2014,02,12,03,48,6.40
2014,02,12,03,49,3.20
2014,02,12,03,50,3.20
2014,02,12,03,51,1.60
2014,02,12,03,52,1.60
2014,02,12,03,55,1.60
2014,02,12,03,56,1.60
2014,02,12,03,57,1.60
2014,02,12,03,59,1.60
2014,02,12,04,00,1.60
2014,02,12,04,02,6.40
2014,02,12,04,03,8.10
2014,02,12,04,04,4.80
2014,02,12,04,05,3.20
2014,02,12,04,06,6.40
2014,02,12,04,07,1.60
2014,02,12,04,08,3.20
2014,02,12,04,10,1.60
2014,02,12,04,11,6.40
2014,02,12,04,12,3.20
2014,02,12,04,13,6.40
2014,02,12,04,14,14.50
2014,02,12,04,15,9.60
2014,02,12,04,16,8.10
2014,02,12,04,17,12.90
2014,02,12,04,18,4.80
2014,02,12,04,19,8.10
2014,02,12,04,20,11.30
2014,02,12,04,21,11.30
2014,02,12,04,22,6.40
2014,02,12,04,23,9.60
2014,02,12,04,24,14.50
2014,02,12,04,25,11.30
2014,02,12,04,26,9.60
2014,02,12,04,27,8.10
2014,02,12,04,28,12.90
2014,02,12,04,29,12.90
2014,02,12,04,30,9.60
2014,02,12,04,31,16.10
2014,02,12,04,32,14.50
2014,02,12,04,33,12.90
2014,02,12,04,34,12.90
2014,02,12,04,35,9.60
2014,02,12,04,36,12.90
2014,02,12,04,37,11.30
2014,02,12,04,38,12.90
2014,02,12,04,39,12.90
2014,02,12,04,40,14.50
2014,02,12,04,41,9.60
2014,02,12,04,42,8.10
2014,02,12,04,43,8.10
2014,02,12,04,44,17.70
2014,02,12,04,45,14.50
2014,02,12,04,46,11.30
2014,02,12,04,47,9.60
2014,02,12,04,48,14.50
2014,02,12,04,49,9.60
2014,02,12,04,50,6.40
2014,02,12,04,51,11.30
2014,02,12,04,52,14.50
2014,02,12,04,53,14.50
2014,02,12,04,54,12.90
2014,02,12,04,55,9.60
2014,02,12,04,56,9.60
2014,02,12,04,57,8.10
2014,02,12,04,58,14.50
2014,02,12,04,59,9.60
2014,02,12,05,00,11.30
2014,02,12,05,01,11.30
2014,02,12,05,02,6.40
2014,02,12,05,03,3.20
2014,02,12,05,04,12.90
2014,02,12,05,05,12.90
2014,02,12,05,06,8.10
2014,02,12,05,07,9.60
2014,02,12,05,08,9.60
2014,02,12,05,09,8.10
2014,02,12,05,10,12.90
2014,02,12,05,11,12.90
2014,02,12,05,12,8.10
2014,02,12,05,13,4.80
2014,02,12,05,14,9.60
2014,02,12,05,15,12.90
2014,02,12,05,16,3.20
2014,02,12,05,17,12.90
2014,02,12,05,18,9.60
2014,02,12,05,19,11.30
2014,02,12,05,20,9.60
2014,02,12,05,21,8.10
2014,02,12,05,22,9.60
2014,02,12,05,23,6.40
2014,02,12,05,24,4.80
2014,02,12,05,25,8.10
2014,02,12,05,26,8.10
2014,02,12,05,27,6.40
2014,02,12,05,28,8.10
2014,02,12,05,29,8.10
2014,02,12,05,30,9.60
2014,02,12,05,31,6.40
2014,02,12,05,32,3.20
2014,02,12,05,33,6.40
2014,02,12,05,34,6.40
2014,02,12,05,35,8.10
2014,02,12,05,36,8.10
2014,02,12,05,37,6.40
2014,02,12,05,38,6.40
2014,02,12,05,39,8.10
2014,02,12,05,40,8.10
2014,02,12,05,41,6.40
2014,02,12,05,42,6.40
2014,02,12,05,43,6.40
2014,02,12,05,44,8.10
2014,02,12,05,45,6.40
2014,02,12,05,46,6.40
2014,02,12,05,47,9.60
2014,02,12,05,48,3.20
2014,02,12,05,49,6.40
2014,02,12,05,50,8.10
2014,02,12,05,51,9.60
2014,02,12,05,52,8.10
2014,02,12,05,53,3.20
2014,02,12,05,54,3.20
2014,02,12,05,55,9.60
2014,02,12,05,56,8.10
2014,02,12,05,57,8.10
2014,02,12,05,58,6.40
2014,02,12,05,59,11.30
2014,02,12,06,00,6.40
2014,02,12,06,01,3.20
2014,02,12,06,02,6.40
2014,02,12,06,03,1.60
2014,02,12,06,04,8.10
2014,02,12,06,05,6.40
2014,02,12,06,06,6.40
2014,02,12,06,07,4.80
2014,02,12,06,08,6.40
2014,02,12,06,09,6.40
2014,02,12,06,10,3.20
2014,02,12,06,11,6.40
2014,02,12,06,12,6.40
2014,02,12,06,13,6.40
2014,02,12,06,14,6.40
2014,02,12,06,15,8.10
2014,02,12,06,16,6.40
2014,02,12,06,17,3.20
2014,02,12,06,19,6.40
2014,02,12,06,20,3.20
2014,02,12,06,21,6.40
2014,02,12,06,22,6.40
2014,02,12,06,23,3.20
2014,02,12,06,24,6.40
2014,02,12,06,25,3.20
2014,02,12,06,26,3.20
2014,02,12,06,27,1.60
2014,02,12,06,28,3.20
2014,02,12,06,29,4.80
2014,02,12,06,30,8.10
2014,02,12,06,31,8.10
2014,02,12,06,32,1.60
2014,02,12,06,33,3.20
2014,02,12,06,34,3.20
2014,02,12,06,35,6.40
2014,02,12,06,36,3.20
2014,02,12,06,37,6.40
2014,02,12,06,38,8.10
2014,02,12,06,39,6.40
2014,02,12,06,40,8.10
2014,02,12,06,41,8.10
2014,02,12,06,42,6.40
2014,02,12,06,43,1.60
2014,02,12,06,44,1.60
2014,02,12,06,45,3.20
2014,02,12,06,46,3.20
2014,02,12,06,48,3.20
2014,02,12,06,49,3.20
2014,02,12,06,50,1.60
2014,02,12,06,51,6.40
2014,02,12,06,52,6.40
2014,02,12,06,53,6.40
2014,02,12,06,54,3.20
2014,02,12,06,55,6.40
2014,02,12,06,56,6.40
2014,02,12,06,57,6.40
2014,02,12,06,58,6.40
2014,02,12,06,59,3.20
2014,02,12,07,00,4.80
2014,02,12,07,01,4.80
2014,02,12,07,02,3.20
2014,02,12,07,03,1.60
2014,02,12,07,04,1.60
2014,02,12,07,05,1.60
2014,02,12,07,06,3.20
2014,02,12,07,07,3.20
2014,02,12,07,08,3.20
2014,02,12,07,09,3.20
2014,02,12,07,10,3.20
2014,02,12,07,11,1.60
2014,02,12,07,12,3.20
2014,02,12,07,13,1.60
2014,02,12,07,14,1.60
2014,02,12,07,15,3.20
2014,02,12,07,16,3.20
2014,02,12,07,17,1.60
2014,02,12,07,19,1.60
2014,02,12,07,24,3.20
2014,02,12,07,25,3.20
2014,02,12,07,26,3.20
2014,02,12,07,27,3.20
2014,02,12,07,28,6.40
2014,02,12,07,29,6.40
2014,02,12,07,30,6.40
2014,02,12,07,31,6.40
2014,02,12,07,32,6.40
2014,02,12,07,33,6.40
2014,02,12,07,34,3.20
2014,02,12,07,35,3.20
2014,02,12,07,36,6.40
2014,02,12,07,37,3.20
2014,02,12,07,38,1.60
2014,02,12,07,39,3.20
2014,02,12,07,40,3.20
2014,02,12,07,41,1.60
2014,02,12,07,42,1.60
2014,02,12,07,43,1.60
2014,02,12,07,44,1.60
2014,02,12,07,45,1.60
2014,02,12,07,46,3.20
2014,02,12,07,47,3.20
2014,02,12,07,48,6.40
2014,02,12,07,49,1.60
2014,02,12,07,50,1.60
2014,02,12,07,52,1.60
2014,02,12,07,53,1.60
2014,02,12,07,54,3.20
2014,02,12,07,56,3.20
2014,02,12,07,57,1.60
2014,02,12,07,58,3.20
2014,02,12,07,59,6.40
2014,02,12,08,00,3.20
2014,02,12,08,01,1.60
2014,02,12,08,02,1.60
2014,02,12,08,03,3.20
2014,02,12,08,04,3.20
2014,02,12,08,05,6.40
2014,02,12,08,06,3.20
2014,02,12,08,07,6.40
2014,02,12,08,08,3.20
2014,02,12,08,09,3.20
2014,02,12,08,10,1.60
2014,02,12,08,11,1.60
2014,02,12,08,12,3.20
2014,02,12,08,13,1.60
2014,02,12,08,14,3.20
2014,02,12,08,15,1.60
2014,02,12,08,16,3.20
2014,02,12,08,17,3.20
2014,02,12,08,22,1.60
2014,02,12,08,28,1.60
2014,02,12,08,29,1.60
2014,02,12,08,30,1.60
2014,02,12,08,31,1.60
2014,02,12,08,32,1.60
2014,02,12,08,37,1.60
2014,02,12,08,38,1.60
2014,02,12,08,39,1.60
2014,02,12,08,40,1.60
2014,02,12,08,41,1.60
2014,02,12,08,42,1.60
2014,02,12,08,43,3.20
2014,02,12,08,44,3.20
2014,02,12,08,45,3.20
2014,02,12,08,46,6.40
2014,02,12,08,47,8.10
2014,02,12,08,48,3.20
2014,02,12,08,49,6.40
2014,02,12,08,50,8.10
2014,02,12,08,51,3.20
2014,02,12,08,52,4.80
2014,02,12,08,53,3.20
2014,02,12,08,54,6.40
2014,02,12,08,55,3.20
2014,02,12,08,56,4.80
2014,02,12,08,57,3.20
2014,02,12,08,59,3.20
2014,02,12,09,00,4.80
2014,02,12,09,01,4.80
2014,02,12,09,02,3.20
2014,02,12,09,03,3.20
2014,02,12,09,04,4.80
2014,02,12,09,05,6.40
2014,02,12,09,06,19.30
2014,02,12,09,07,9.60
2014,02,12,09,08,9.60
2014,02,12,09,09,3.20
2014,02,12,09,10,3.20
2014,02,12,09,11,6.40
2014,02,12,09,12,3.20
2014,02,12,09,13,3.20
2014,02,12,09,14,3.20
2014,02,12,09,15,6.40
2014,02,12,09,16,3.20
2014,02,12,09,17,9.60
2014,02,12,09,18,4.80
2014,02,12,09,19,4.80
2014,02,12,09,20,1.60
2014,02,12,09,21,4.80
2014,02,12,09,22,9.60
2014,02,12,09,23,8.10
2014,02,12,09,24,6.40
2014,02,12,09,25,6.40
2014,02,12,09,26,8.10
2014,02,12,09,27,4.80
2014,02,12,09,28,6.40
2014,02,12,09,29,8.10
2014,02,12,09,30,8.10
2014,02,12,09,31,8.10
2014,02,12,09,32,3.20
2014,02,12,09,33,8.10
2014,02,12,09,34,9.60
2014,02,12,09,35,6.40
2014,02,12,09,36,1.60
2014,02,12,09,37,4.80
2014,02,12,09,38,1.60
2014,02,12,09,39,4.80
2014,02,12,09,40,4.80
2014,02,12,09,41,8.10
2014,02,12,09,42,12.90
2014,02,12,09,43,8.10
2014,02,12,09,44,6.40
2014,02,12,09,45,4.80
2014,02,12,09,46,8.10
2014,02,12,09,47,3.20
2014,02,12,09,48,6.40
2014,02,12,09,49,9.60
2014,02,12,09,50,8.10
2014,02,12,09,51,8.10
2014,02,12,09,52,3.20
2014,02,12,09,53,6.40
2014,02,12,09,54,6.40
2014,02,12,09,55,3.20
2014,02,12,09,56,4.80
2014,02,12,09,57,4.80
2014,02,12,09,58,3.20
2014,02,12,09,59,6.40
2014,02,12,10,00,11.30
2014,02,12,10,01,8.10
2014,02,12,10,02,6.40
2014,02,12,10,03,3.20
2014,02,12,10,04,6.40
2014,02,12,10,05,3.20
2014,02,12,10,06,3.20
2014,02,12,10,07,8.10
2014,02,12,10,08,8.10
2014,02,12,10,09,6.40
2014,02,12,10,10,8.10
2014,02,12,10,11,6.40
2014,02,12,10,12,11.30
2014,02,12,10,13,3.20
2014,02,12,10,14,6.40
2014,02,12,10,15,8.10
2014,02,12,10,16,8.10
2014,02,12,10,17,3.20
2014,02,12,10,18,9.60
2014,02,12,10,19,4.80
2014,02,12,10,20,3.20
2014,02,12,10,21,8.10
2014,02,12,10,22,14.50
2014,02,12,10,23,11.30
2014,02,12,10,24,6.40
2014,02,12,10,25,3.20
2014,02,12,10,26,14.50
2014,02,12,10,27,6.40
2014,02,12,10,28,16.10
2014,02,12,10,29,12.90
2014,02,12,10,30,11.30
2014,02,12,10,31,9.60
2014,02,12,10,32,8.10
2014,02,12,10,33,6.40
2014,02,12,10,34,6.40
2014,02,12,10,35,6.40
2014,02,12,10,36,8.10
2014,02,12,10,37,8.10
2014,02,12,10,38,3.20
2014,02,12,10,39,3.20
2014,02,12,10,40,8.10
2014,02,12,10,41,8.10
2014,02,12,10,42,8.10
2014,02,12,10,43,4.80
2014,02,12,10,44,6.40
2014,02,12,10,45,4.80
2014,02,12,10,46,8.10
2014,02,12,10,47,6.40
2014,02,12,10,48,6.40
2014,02,12,10,49,4.80
2014,02,12,10,50,8.10
2014,02,12,10,51,6.40
2014,02,12,10,52,3.20
2014,02,12,10,53,4.80
2014,02,12,10,54,9.60
2014,02,12,10,55,8.10
2014,02,12,10,56,4.80
2014,02,12,10,57,8.10
2014,02,12,10,58,3.20
2014,02,12,10,59,3.20
2014,02,12,11,00,6.40
2014,02,12,11,01,3.20
2014,02,12,11,02,6.40
2014,02,12,11,03,4.80
2014,02,12,11,04,4.80
2014,02,12,11,05,11.30
2014,02,12,11,06,8.10
2014,02,12,11,07,3.20
2014,02,12,11,08,3.20
2014,02,12,11,09,6.40
2014,02,12,11,10,9.60
2014,02,12,11,11,9.60
2014,02,12,11,12,6.40
2014,02,12,11,13,9.60
2014,02,12,11,14,8.10
2014,02,12,11,15,3.20
2014,02,12,11,16,9.60
2014,02,12,11,17,8.10
2014,02,12,11,18,4.80
2014,02,12,11,19,3.20
2014,02,12,11,20,3.20
2014,02,12,11,21,11.30
2014,02,12,11,22,11.30
2014,02,12,11,23,11.30
2014,02,12,11,24,9.60
2014,02,12,11,25,11.30
2014,02,12,11,26,9.60
2014,02,12,11,27,9.60
2014,02,12,11,28,14.50
2014,02,12,11,29,8.10
2014,02,12,11,30,12.90
2014,02,12,11,31,9.60
2014,02,12,11,32,9.60
2014,02,12,11,33,12.90
2014,02,12,11,34,11.30
2014,02,12,11,35,8.10
2014,02,12,11,36,14.50
2014,02,12,11,37,11.30
2014,02,12,11,38,11.30
2014,02,12,11,39,8.10
2014,02,12,11,40,9.60
2014,02,12,11,41,8.10
2014,02,12,11,42,9.60
2014,02,12,11,43,12.90
2014,02,12,11,44,9.60
2014,02,12,11,45,6.40
2014,02,12,11,46,6.40
2014,02,12,11,47,8.10
2014,02,12,11,48,11.30
2014,02,12,11,49,6.40
2014,02,12,11,50,11.30
2014,02,12,11,51,12.90
2014,02,12,11,52,11.30
2014,02,12,11,53,6.40
2014,02,12,11,54,17.70
2014,02,12,11,55,9.60
2014,02,12,11,56,11.30
2014,02,12,11,57,6.40
2014,02,12,11,58,6.40
2014,02,12,11,59,3.20
2014,02,12,12,00,12.90
2014,02,12,12,01,3.20
2014,02,12,12,02,11.30
2014,02,12,12,03,9.60
2014,02,12,12,04,8.10
2014,02,12,12,05,11.30
2014,02,12,12,06,8.10
2014,02,12,12,07,8.10
2014,02,12,12,08,8.10
2014,02,12,12,09,6.40
2014,02,12,12,10,3.20
2014,02,12,12,11,1.60
2014,02,12,12,12,9.60
2014,02,12,12,13,11.30
2014,02,12,12,14,6.40
2014,02,12,12,15,14.50
2014,02,12,12,16,16.10
2014,02,12,12,17,9.60
2014,02,12,12,18,6.40
2014,02,12,12,19,11.30
2014,02,12,12,20,6.40
2014,02,12,12,21,3.20
2014,02,12,12,22,1.60
2014,02,12,12,23,6.40
2014,02,12,12,24,8.10
2014,02,12,12,25,17.70
2014,02,12,12,26,9.60
2014,02,12,12,27,4.80
2014,02,12,12,28,3.20
2014,02,12,12,29,3.20
2014,02,12,12,30,4.80
2014,02,12,12,31,4.80
2014,02,12,12,32,3.20
2014,02,12,12,33,8.10
2014,02,12,12,34,11.30
2014,02,12,12,35,9.60
2014,02,12,12,36,3.20
2014,02,12,12,37,14.50
2014,02,12,12,38,9.60
2014,02,12,12,39,6.40
2014,02,12,12,40,6.40
2014,02,12,12,41,8.10
2014,02,12,12,42,6.40
2014,02,12,12,43,6.40
2014,02,12,12,44,6.40
2014,02,12,12,45,3.20
2014,02,12,12,46,8.10
2014,02,12,12,47,3.20
2014,02,12,12,48,6.40
2014,02,12,12,49,6.40
2014,02,12,12,50,3.20
2014,02,12,12,51,6.40
2014,02,12,12,52,8.10
2014,02,12,12,53,6.40
2014,02,12,12,54,8.10
2014,02,12,12,55,8.10
2014,02,12,12,56,9.60
2014,02,12,12,57,8.10
2014,02,12,12,58,4.80
2014,02,12,12,59,8.10
2014,02,12,13,00,8.10
2014,02,12,13,01,8.10
2014,02,12,13,02,12.90
2014,02,12,13,03,12.90
2014,02,12,13,04,9.60
2014,02,12,13,05,8.10
2014,02,12,13,06,14.50
2014,02,12,13,07,16.10
2014,02,12,13,08,11.30
2014,02,12,13,09,19.30
2014,02,12,13,10,9.60
2014,02,12,13,11,16.10
2014,02,12,13,12,14.50
2014,02,12,13,13,11.30
2014,02,12,13,14,16.10
2014,02,12,13,15,11.30
2014,02,12,13,16,9.60
2014,02,12,13,17,11.30
2014,02,12,13,18,9.60
2014,02,12,13,19,4.80
2014,02,12,13,20,22.50
2014,02,12,13,21,12.90
2014,02,12,13,22,17.70
2014,02,12,13,23,12.90
2014,02,12,13,24,11.30
2014,02,12,13,25,11.30
2014,02,12,13,26,12.90
2014,02,12,13,27,11.30
2014,02,12,13,28,6.40
2014,02,12,13,29,9.60
2014,02,12,13,30,8.10
2014,02,12,13,31,11.30
2014,02,12,13,32,14.50
2014,02,12,13,33,11.30
2014,02,12,13,34,12.90
2014,02,12,13,35,14.50
2014,02,12,13,36,12.90
2014,02,12,13,37,14.50
2014,02,12,13,38,14.50
2014,02,12,13,39,17.70
2014,02,12,13,40,16.10
2014,02,12,13,41,12.90
2014,02,12,13,42,19.30
2014,02,12,13,43,14.50
2014,02,12,13,44,14.50
2014,02,12,13,45,20.90
2014,02,12,13,46,17.70
2014,02,12,13,47,16.10
2014,02,12,13,48,11.30
2014,02,12,13,49,12.90
2014,02,12,13,50,12.90
2014,02,12,13,51,8.10
2014,02,12,13,52,19.30
2014,02,12,13,53,9.60
2014,02,12,13,54,11.30
2014,02,12,13,55,12.90
2014,02,12,13,56,8.10
2014,02,12,13,57,11.30
2014,02,12,13,58,8.10
2014,02,12,13,59,17.70
2014,02,12,14,00,12.90
2014,02,12,14,01,9.60
2014,02,12,14,02,14.50
2014,02,12,14,03,9.60
2014,02,12,14,04,11.30
2014,02,12,14,05,9.60
2014,02,12,14,06,6.40
2014,02,12,14,07,6.40
2014,02,12,14,08,4.80
2014,02,12,14,09,4.80
2014,02,12,14,10,11.30
2014,02,12,14,11,12.90
2014,02,12,14,12,12.90
2014,02,12,14,13,4.80
2014,02,12,14,14,14.50
2014,02,12,14,15,9.60
2014,02,12,14,16,11.30
2014,02,12,14,17,8.10
2014,02,12,14,18,9.60
2014,02,12,14,19,17.70
2014,02,12,14,20,8.10
2014,02,12,14,21,19.30
2014,02,12,14,22,22.50
2014,02,12,14,23,20.90
2014,02,12,14,24,17.70
2014,02,12,14,25,16.10
2014,02,12,14,26,12.90
2014,02,12,14,27,8.10
2014,02,12,14,28,17.70
2014,02,12,14,29,12.90
2014,02,12,14,30,12.90
2014,02,12,14,31,11.30
2014,02,12,14,32,19.30
2014,02,12,14,33,19.30
2014,02,12,14,34,14.50
2014,02,12,14,35,22.50
2014,02,12,14,36,20.90
2014,02,12,14,37,16.10
2014,02,12,14,38,11.30
2014,02,12,14,39,12.90
2014,02,12,14,40,12.90
2014,02,12,14,41,6.40
2014,02,12,14,42,3.20
2014,02,12,14,43,3.20
2014,02,12,14,44,8.10
2014,02,12,14,45,6.40
2014,02,12,14,46,4.80
2014,02,12,14,47,12.90
2014,02,12,14,48,8.10
2014,02,12,14,49,6.40
2014,02,12,14,50,9.60
2014,02,12,14,51,9.60
2014,02,12,14,52,11.30
2014,02,12,14,53,9.60
2014,02,12,14,54,8.10
2014,02,12,14,55,11.30
2014,02,12,14,56,4.80
2014,02,12,14,57,4.80
2014,02,12,14,58,11.30
2014,02,12,14,59,9.60
2014,02,12,15,00,14.50
2014,02,12,15,01,11.30
2014,02,12,15,02,3.20
2014,02,12,15,03,3.20
2014,02,12,15,04,11.30
2014,02,12,15,05,12.90
2014,02,12,15,06,12.90
2014,02,12,15,07,14.50
2014,02,12,15,08,17.70
2014,02,12,15,09,11.30
2014,02,12,15,10,14.50
2014,02,12,15,11,8.10
2014,02,12,15,12,11.30
2014,02,12,15,13,14.50
2014,02,12,15,14,14.50
2014,02,12,15,15,20.90
2014,02,12,15,16,12.90
2014,02,12,15,17,12.90
2014,02,12,15,18,6.40
2014,02,12,15,19,12.90
2014,02,12,15,20,9.60
2014,02,12,15,21,12.90
2014,02,12,15,22,8.10
2014,02,12,15,23,8.10
2014,02,12,15,24,11.30
2014,02,12,15,25,6.40
2014,02,12,15,26,8.10
2014,02,12,15,27,8.10
2014,02,12,15,28,4.80
2014,02,12,15,29,6.40
2014,02,12,15,30,3.20
2014,02,12,15,31,6.40
2014,02,12,15,32,8.10
2014,02,12,15,33,4.80
2014,02,12,15,34,4.80
2014,02,12,15,35,8.10
2014,02,12,15,36,12.90
2014,02,12,15,37,9.60
2014,02,12,15,38,9.60
2014,02,12,15,39,3.20
2014,02,12,15,40,9.60
2014,02,12,15,41,6.40
2014,02,12,15,42,1.60
2014,02,12,15,43,8.10
2014,02,12,15,44,14.50
2014,02,12,15,45,11.30
2014,02,12,15,46,14.50
2014,02,12,15,47,16.10
2014,02,12,15,48,3.20
2014,02,12,15,49,8.10
2014,02,12,15,50,11.30
2014,02,12,15,51,9.60
2014,02,12,15,52,3.20
2014,02,12,15,53,8.10
2014,02,12,15,54,4.80
2014,02,12,15,55,6.40
2014,02,12,15,56,9.60
2014,02,12,15,57,12.90
2014,02,12,15,58,8.10
2014,02,12,15,59,3.20
2014,02,12,16,00,6.40
2014,02,12,16,01,6.40
2014,02,12,16,02,6.40
2014,02,12,16,03,1.60
2014,02,12,16,04,3.20
2014,02,12,16,05,8.10
2014,02,12,16,06,8.10
2014,02,12,16,07,3.20
2014,02,12,16,08,4.80
2014,02,12,16,09,6.40
2014,02,12,16,10,6.40
2014,02,12,16,11,4.80
2014,02,12,16,12,9.60
2014,02,12,16,13,11.30
2014,02,12,16,14,9.60
2014,02,12,16,15,3.20
2014,02,12,16,16,4.80
2014,02,12,16,17,1.60
2014,02,12,16,18,4.80
2014,02,12,16,19,6.40
2014,02,12,16,20,8.10
2014,02,12,16,21,12.90
2014,02,12,16,22,11.30
2014,02,12,16,23,6.40
2014,02,12,16,24,6.40
2014,02,12,16,25,1.60
2014,02,12,16,26,1.60
2014,02,12,16,27,1.60
2014,02,12,16,28,1.60
2014,02,12,16,29,3.20
2014,02,12,16,30,4.80
2014,02,12,16,31,4.80
2014,02,12,16,32,6.40
2014,02,12,16,33,6.40
2014,02,12,16,34,3.20
2014,02,12,16,35,1.60
2014,02,12,16,36,4.80
2014,02,12,16,37,6.40
2014,02,12,16,38,3.20
2014,02,12,16,41,3.20
2014,02,12,16,42,8.10
2014,02,12,16,43,6.40
2014,02,12,16,44,3.20
2014,02,12,16,45,4.80
2014,02,12,16,46,3.20
2014,02,12,16,47,3.20
2014,02,12,16,48,4.80
2014,02,12,16,49,3.20
2014,02,12,16,50,4.80
2014,02,12,16,51,1.60
2014,02,12,16,52,6.40
2014,02,12,16,53,6.40
2014,02,12,16,54,3.20
2014,02,12,16,55,8.10
2014,02,12,16,56,9.60
2014,02,12,16,57,9.60
2014,02,12,16,58,3.20
2014,02,12,16,59,6.40
2014,02,12,17,00,6.40
2014,02,12,17,01,6.40
2014,02,12,17,02,9.60
2014,02,12,17,03,8.10
2014,02,12,17,04,9.60
2014,02,12,17,05,9.60
2014,02,12,17,06,11.30
2014,02,12,17,07,6.40
2014,02,12,17,08,9.60
2014,02,12,17,09,3.20
2014,02,12,17,10,3.20
2014,02,12,17,11,4.80
2014,02,12,17,12,6.40
2014,02,12,17,13,8.10
2014,02,12,17,14,3.20
2014,02,12,17,15,3.20
2014,02,12,17,16,3.20
2014,02,12,17,17,3.20
2014,02,12,17,18,6.40
2014,02,12,17,19,3.20
2014,02,12,17,20,3.20
2014,02,12,17,21,3.20
2014,02,12,17,22,3.20
2014,02,12,17,23,4.80
2014,02,12,17,24,3.20
2014,02,12,17,25,1.60
2014,02,12,17,26,1.60
2014,02,12,17,27,1.60
2014,02,12,17,28,3.20
2014,02,12,17,29,3.20
2014,02,12,17,30,8.10
2014,02,12,17,31,9.60
2014,02,12,17,32,4.80
2014,02,12,17,33,1.60
2014,02,12,17,34,3.20
2014,02,12,17,35,6.40
2014,02,12,17,36,3.20
2014,02,12,17,37,6.40
2014,02,12,17,38,6.40
2014,02,12,17,39,4.80
2014,02,12,17,40,4.80
2014,02,12,17,41,3.20
2014,02,12,17,42,3.20
2014,02,12,17,43,4.80
2014,02,12,17,44,6.40
2014,02,12,17,45,8.10
2014,02,12,17,46,8.10
2014,02,12,17,47,6.40
2014,02,12,17,48,4.80
2014,02,12,17,49,4.80
2014,02,12,17,50,3.20
2014,02,12,17,51,3.20
2014,02,12,17,52,8.10
2014,02,12,17,53,6.40
2014,02,12,17,54,3.20
2014,02,12,17,55,6.40
2014,02,12,17,56,3.20
2014,02,12,17,57,1.60
2014,02,12,17,58,6.40
2014,02,12,17,59,3.20
2014,02,12,18,00,3.20
2014,02,12,18,01,1.60
2014,02,12,18,04,1.60
2014,02,12,18,05,1.60
2014,02,12,18,06,3.20
2014,02,12,18,07,1.60
2014,02,12,18,08,3.20
2014,02,12,18,09,6.40
2014,02,12,18,10,3.20
2014,02,12,18,11,4.80
2014,02,12,18,12,4.80
2014,02,12,18,13,3.20
2014,02,12,18,15,1.60
2014,02,12,18,16,1.60
2014,02,12,18,17,1.60
2014,02,12,18,18,3.20
2014,02,12,18,19,1.60
2014,02,12,18,20,8.10
2014,02,12,18,21,3.20
2014,02,12,18,22,8.10
2014,02,12,18,23,8.10
2014,02,12,18,24,3.20
2014,02,12,18,25,1.60
2014,02,12,18,26,1.60
2014,02,12,18,27,4.80
2014,02,12,18,28,4.80
2014,02,12,18,29,3.20
2014,02,12,18,30,3.20
2014,02,12,18,31,8.10
2014,02,12,18,32,3.20
2014,02,12,18,33,3.20
2014,02,12,18,34,1.60
2014,02,12,18,35,1.60
2014,02,12,18,36,1.60
2014,02,12,18,38,1.60
2014,02,12,18,39,1.60
2014,02,12,18,40,1.60
2014,02,12,18,41,3.20
2014,02,12,18,42,3.20